Tracking 19192 objects as of 21-Jun-2018
HD Live streaming from Space Station
objects crossing your sky now

FENGYUN 1C DEB

Track FENGYUN 1C DEB now!
10-day predictions


NORAD ID: 36695
Int'l Code: 1999-025DZR
Perigee: 575.4 km
Apogee: 970.3 km
Inclination: 98.4 °
Period: 100.2 minutes
Semi major axis: 7143 km
RCS: 0.0082 m2 (small)
Launch date: May 10, 1999
Source: People's Republic of China (PRC)
Launch site: Taiyaun Space Center, China (TSC)

Note: This is SATELLITE DEBRIS
aabbcc
Your satellite tracking list
Your tracking list is empty




NASA's NSSDC Master Catalog

Two Line Element Set (TLE):
1 36695U 99025DZR 18171.37023055 +.00000042 +00000-0 +20054-4 0  9998
2 36695 098.3500 223.7537 0276386 099.3805 263.8740 14.37819999502648
Source of the keplerian elements: AFSPC